TimePST,TemperatureF,Dew PointF,Humidity,Sea Level PressureIn,VisibilityMPH,Wind Direction,Wind SpeedMPH,Gust SpeedMPH,PrecipitationIn,Events,Conditions,WindDirDegrees,DateUTC
12:39 AM,32.0,30.2,93,30.07,3.0,Calm,Calm,-,N/A,,Scattered Clouds,0,2013-12-03 08:39:00
12:41 AM,30.2,30.2,100,30.07,1.8,North,3.5,-,N/A,,Scattered Clouds,350,2013-12-03 08:41:00
12:51 AM,30.2,30.2,100,30.07,3.0,Calm,Calm,-,N/A,,Partly Cloudy,0,2013-12-03 08:51:00
12:53 AM,30.0,30.0,100,30.08,6.0,Calm,Calm,-,N/A,,Partly Cloudy,0,2013-12-03 08:53:00
1:03 AM,30.2,30.2,100,30.08,1.8,Calm,Calm,-,N/A,,Scattered Clouds,0,2013-12-03 09:03:00
1:20 AM,30.2,30.2,100,30.08,3.0,Calm,Calm,-,N/A,,Scattered Clouds,0,2013-12-03 09:20:00
1:53 AM,30.9,30.9,100,30.09,4.0,Calm,Calm,-,N/A,,Overcast,0,2013-12-03 09:53:00
2:53 AM,30.9,30.9,100,30.09,8.0,Calm,Calm,-,N/A,,Overcast,0,2013-12-03 10:53:00
3:30 AM,32.0,32.0,100,30.08,7.0,NNW,3.5,-,N/A,,Overcast,340,2013-12-03 11:30:00
3:53 AM,30.9,30.9,100,30.09,6.0,Calm,Calm,-,N/A,,Mostly Cloudy,0,2013-12-03 11:53:00
4:03 AM,30.2,30.2,100,30.09,8.0,Calm,Calm,-,N/A,,Mostly Cloudy,0,2013-12-03 12:03:00
4:53 AM,32.0,32.0,100,30.10,9.0,NW,3.5,-,N/A,,Overcast,310,2013-12-03 12:53:00
5:07 AM,32.0,32.0,100,30.10,4.0,North,3.5,-,N/A,,Overcast,350,2013-12-03 13:07:00
5:16 AM,33.8,32.0,93,30.10,2.0,North,4.6,-,N/A,,Overcast,10,2013-12-03 13:16:00
5:28 AM,33.8,32.0,93,30.10,4.0,North,4.6,-,N/A,,Overcast,10,2013-12-03 13:28:00
5:53 AM,33.1,32.0,96,30.12,4.0,North,5.8,-,N/A,,Overcast,360,2013-12-03 13:53:00
6:31 AM,33.8,33.8,100,30.12,1.8,NNW,3.5,-,N/A,,Overcast,330,2013-12-03 14:31:00
6:44 AM,33.8,33.8,100,30.13,0.8,NNW,4.6,-,N/A,,Mist,330,2013-12-03 14:44:00
6:53 AM,33.1,33.1,100,30.14,0.8,North,5.8,-,N/A,,Mist,350,2013-12-03 14:53:00
7:07 AM,33.8,33.8,100,30.14,1.2,North,4.6,-,N/A,,Overcast,10,2013-12-03 15:07:00
7:15 AM,33.8,33.8,100,30.14,3.0,North,3.5,-,N/A,,Overcast,360,2013-12-03 15:15:00
7:53 AM,34.0,33.1,96,30.15,4.0,North,5.8,-,N/A,,Overcast,350,2013-12-03 15:53:00
8:29 AM,33.8,33.8,100,30.16,2.5,ENE,3.5,-,N/A,,Overcast,60,2013-12-03 16:29:00
8:37 AM,33.8,33.8,100,30.16,0.8,East,3.5,-,N/A,,Overcast,80,2013-12-03 16:37:00
8:46 AM,33.8,33.8,100,30.16,0.2,East,3.5,-,N/A,Fog,Fog,90,2013-12-03 16:46:00
8:53 AM,33.1,33.1,100,30.17,0.2,Calm,Calm,-,N/A,Fog,Fog,0,2013-12-03 16:53:00
9:09 AM,33.8,33.8,100,30.17,1.0,ENE,3.5,-,N/A,,Overcast,60,2013-12-03 17:09:00
9:13 AM,33.8,33.8,100,30.17,3.0,Calm,Calm,-,N/A,,Overcast,0,2013-12-03 17:13:00
9:29 AM,33.8,33.8,100,30.17,4.0,Calm,Calm,-,N/A,,Overcast,0,2013-12-03 17:29:00
9:53 AM,35.1,35.1,100,30.18,5.0,Calm,Calm,-,N/A,,Overcast,0,2013-12-03 17:53:00
9:58 AM,33.8,33.8,100,30.18,5.0,Calm,Calm,-,N/A,,Overcast,0,2013-12-03 17:58:00
10:53 AM,37.9,36.0,93,30.18,10.0,North,5.8,-,N/A,,Partly Cloudy,350,2013-12-03 18:53:00
11:32 AM,39.2,35.6,87,30.18,10.0,North,10.4,-,N/A,,Mostly Cloudy,10,2013-12-03 19:32:00
11:53 AM,39.9,34.0,79,30.19,10.0,North,13.8,-,N/A,,Mostly Cloudy,10,2013-12-03 19:53:00
12:05 PM,42.8,33.8,70,30.18,10.0,North,9.2,-,N/A,,Scattered Clouds,10,2013-12-03 20:05:00
12:53 PM,44.1,33.1,65,30.18,10.0,North,10.4,-,N/A,,Clear,360,2013-12-03 20:53:00
1:53 PM,41.0,25.0,53,30.18,10.0,NE,15.0,-,N/A,,Scattered Clouds,50,2013-12-03 21:53:00
2:53 PM,43.0,21.0,42,30.20,10.0,ENE,12.7,21.9,N/A,,Clear,60,2013-12-03 22:53:00
3:53 PM,39.9,21.0,47,30.22,10.0,ENE,11.5,-,N/A,,Clear,60,2013-12-03 23:53:00
4:53 PM,36.0,19.9,52,30.23,10.0,NE,10.4,-,N/A,,Clear,50,2013-12-04 00:53:00
5:53 PM,35.1,19.0,52,30.25,10.0,NE,8.1,-,N/A,,Clear,50,2013-12-04 01:53:00
6:53 PM,33.1,19.0,56,30.25,10.0,NNE,5.8,-,N/A,,Clear,20,2013-12-04 02:53:00
7:53 PM,32.0,19.9,61,30.26,10.0,NE,8.1,-,N/A,,Clear,50,2013-12-04 03:53:00
8:53 PM,30.9,18.0,59,30.27,10.0,NNE,6.9,-,N/A,,Clear,30,2013-12-04 04:53:00
9:53 PM,30.9,19.9,64,30.28,10.0,North,6.9,-,N/A,,Clear,360,2013-12-04 05:53:00
10:53 PM,30.0,21.9,72,30.30,10.0,North,6.9,-,N/A,,Clear,360,2013-12-04 06:53:00
11:53 PM,27.0,21.9,81,30.30,10.0,North,3.5,-,N/A,,Clear,360,2013-12-04 07:53:00